Location: Ammerl�gen
(47.2167°N, 9.6000°E)
Time: 09:45:39
(UTC+00:00)

Meteor 2-8 Rocket - Pass Details

Date: 21 April 2021
Orbit: 936 x 959 km, 82.5° (Epoch: 06 May)

Event Time Altitude Azimuth Distance (km) Brightness Sun altitude
Exits shadow 20:46:52 29° 184° (S) 1,680 5.4 -21.5°
Maximum altitude 20:50:14 86° 98° (E) 962 4.3 -21.9°
Drops below altitude 10° 20:56:23 10° 10° (N) 2,682 7.3 -22.5°
Sets 20:58:53 0° 10° (N) 3,628 8.1 -22.8°
